Wind_Speed
12 10 11 9 7 3 5 6 3 9 7 2 1 2 3 2 3 4 3 2 1 3 4 2 1 2 1 2 5 5 1 5 4 5 3 2 2 6 12 5 5 1 3 3
11 9 9 7 4 3 7 6 5 7 8 2 2 2 2 2 2 2 2 3 2 2 5 3 1 2 2 3 0 2 5 4 5 2 2 1 5 9 5 3 2 6 5 3
11 8 8 5 3 5 9 6 3 3 4 2 2 2 2 3 1 2 1 1 1 3 3 2 4 3 2 3 1 4 3 3 3 5 2 5 7 13 13 8 5 12 13 14
11 8 7 3 2 7 9 4 2 4 3 3 3 1 0 3 2 2 2 2 3 1 3 3 3 2 4 3 4 2 0 3 2 1 3 3 3 8 15 13 18 13 17 18
11 9 7 4 5 7 8 5 5 4 3 3 4 0 2 2 3 2 1 3 2 1 2 3 3 4 4 3 3 2 1 3 2 1 1 2 3 8 9 14 16 15 20 24
12 9 8 6 6 8 6 7 9 6 2 4 4 3 2 3 1 4 6 2 1 5 3 3 6 3 3 1 6 4 3 4 2 1 1 2 6 13 12 8 9 13 15 18
13 11 10 8 6 6 6 9 11 5 3 2 2 3 1 2 2 2 3 5 0 2 5 1 1 4 6 5 4 2 7 7 2 3 3 4 2 2 1 11 11 14 16 16
15 14 12 10 7 6 6 11 7 6 4 6 4 4 2 2 2 2 2 4 5 7 1 2 3 2 2 2 3 2 2 5 3 3 5 4 3 3 4 4 2 3 11 11
17 16 14 11 7 6 7 9 10 7 10 3 5 4 2 2 2 2 1 1 3 4 1 1 4 4 2 4 3 2 3 2 4 3 3 4 3 4 3 3 3 1 5 7
20 18 15 11 8 8 9 11 12 9 9 4 4 2 3 3 2 2 1 5 3 4 2 2 3 3 2 4 4 4 4 3 7 6 5 4 3 5 5 4 3 1 3 7
22 19 17 13 10 10 10 13 13 11 8 8 7 4 4 3 2 2 1 2 1 1 2 3 3 3 3 2 0 3 7 6 4 5 5 7 8 7 4 2 2 5 6 7
24 21 18 14 11 12 12 17 18 23 11 13 13 8 7 5 5 5 2 3 2 1 1 0 2 2 2 2 3 2 4 3 2 5 3 2 9 3 2 6 10 12 12 11
25 22 19 16 14 15 15 25 25 32 23 16 5 6 9 6 5 5 2 2 3 2 3 2 1 2 1 2 3 2 4 3 3 2 2 5 8 7 9 7 10 15 14 13
27 23 20 17 19 17 21 32 23 14 12 7 3 6 6 4 3 4 5 7 6 4 1 1 1 2 1 1 2 3 3 3 2 5 10 8 2 2 8 14 18 16 11 12
28 24 21 19 23 20 22 23 14 12 6 6 7 7 5 5 2 6 6 4 3 1 1 2 0 1 2 2 2 4 6 4 4 6 1 4 10 10 18 20 19 17 14 13
28 25 22 21 25 22 21 7 9 14 20 8 4 5 5 8 9 8 7 5 3 2 1 1 2 2 2 2 3 4 3 2 4 4 8 17 20 21 20 14 15 16 15 14
29 26 23 22 23 18 3 5 15 18 11 6 6 4 3 5 4 3 4 3 2 1 1 1 2 1 1 2 3 0 6 9 10 13 12 12 11 11 11 12 11 12 9 8
32 28 24 22 18 15 11 14 17 17 7 5 4 3 3 4 3 3 3 2 1 1 1 1 2 2 2 4 9 9 8 11 11 9 14 17 18 19 14 13 11 12 8 7
34 29 27 18 8 6 11 16 13 8 5 5 3 4 3 5 2 3 3 2 1 1 2 2 2 2 5 5 6 7 7 7 12 19 16 10 9 10 9 10 10 10 11 10
36 34 7 6 10 23 17 6 3 3 3 3 4 5 3 4 3 3 4 2 1 1 0 3 3 3 11 10 11 9 9 11 11 10 11 15 13 11 10 8 9 10 8 8
30 9 4 22 20 5 3 4 2 1 3 2 4 4 5 4 1 2 1 1 2 1 2 2 2 3 1 6 8 8 8 7 6 7 9 10 10 11 9 7 7 8 9 9
13 12 22 13 5 3 4 2 1 1 3 5 5 5 5 5 3 1 1 0 2 2 7 2 3 2 3 8 9 8 7 8 8 8 6 7 8 7 8 8 9 9 9 9
31 7 6 6 1 4 4 6 2 3 7 6 7 4 4 4 3 1 1 2 2 3 2 3 3 3 6 8 9 8 7 7 8 8 8 6 5 6 6 6 7 7 7 8
5 7 4 1 2 1 2 3 4 5 12 19 14 8 3 3 3 1 2 1 1 2 3 5 3 7 7 8 8 8 8 7 8 9 9 8 6 6 5 4 3 4 5 5
4 3 4 2 7 5 8 12 10 16 24 17 11 6 3 2 2 2 1 2 4 5 4 2 6 5 1 1 4 7 9 11 11 9 9 10 9 8 6 4 4 5 5 8
4 5 7 7 8 3 7 11 19 19 19 12 6 3 3 3 2 4 5 3 6 3 3 5 6 8 8 8 8 8 11 12 13 12 9 7 9 10 9 7 6 5 7 7
3 4 12 11 8 11 12 16 14 19 16 3 4 4 4 3 3 3 3 5 3 5 6 8 10 10 10 10 13 14 20 20 17 16 13 9 9 10 10 10 8 7 7 7
Wind_Direction
253 275 296 298 309 303 182 176 157 165 163 179 108 232 196 195 175 180 219 237 181 143 151 138 139 129 52 187 169 125 110 108 136 187 102 44 344 233 217 231 193 52 324 262
245 270 282 282 287 233 175 175 131 170 166 213 201 232 216 227 179 184 201 205 228 176 151 137 148 125 49 179 333 132 165 113 121 114 232 151 236 210 219 201 37 195 249 225
238 258 267 265 246 199 179 175 144 150 174 212 247 208 154 150 115 116 239 329 226 160 125 4 140 136 61 141 113 135 115 145 225 204 108 149 200 217 215 209 239 246 234 263
229 244 250 237 189 179 178 174 147 162 167 191 171 210 146 154 138 31 21 102 42 64 146 133 139 133 134 99 139 93 231 127 133 85 93 150 208 214 210 211 232 246 262 260
219 230 226 190 170 170 181 170 155 136 109 140 173 269 136 153 118 329 85 111 27 50 100 12 183 165 201 169 147 123 34 117 131 105 57 245 262 240 228 232 244 251 261 269
208 213 206 170 165 176 185 183 156 145 139 158 191 147 146 122 190 92 53 23 78 108 52 332 318 260 318 162 171 146 139 141 145 176 7 320 270 245 225 228 239 246 245 253
198 203 186 162 158 176 196 184 157 152 128 181 137 135 140 123 64 100 33 23 5 18 311 202 6 80 101 125 68 153 163 141 193 172 172 230 78 120 225 229 254 238 254 271
192 192 175 157 158 162 176 170 158 135 114 117 127 135 122 119 61 108 33 44 1 337 289 179 156 147 163 101 64 145 231 179 156 217 214 313 180 191 185 207 265 230 247 275
187 183 168 157 157 156 162 151 154 124 126 145 130 134 73 122 100 134 65 325 325 4 51 351 211 196 155 174 164 85 164 250 232 175 216 237 101 159 168 187 249 189 240 288
183 177 163 154 163 166 157 140 145 124 104 136 126 113 111 112 106 95 29 349 30 18 155 193 184 196 312 201 202 175 181 192 217 209 252 275 227 165 149 242 73 294 264 292
179 172 158 153 167 169 148 130 143 132 105 119 115 109 126 141 151 149 72 148 93 86 173 227 174 202 173 236 179 199 197 189 202 206 225 256 151 120 216 52 276 282 292 293
175 169 156 159 171 170 149 131 134 126 102 130 118 96 92 102 131 123 59 92 94 104 138 233 284 171 188 216 221 187 222 244 232 229 222 40 189 264 234 314 294 296 288 291
172 166 160 162 172 159 151 136 133 118 110 106 92 86 100 87 106 127 126 135 138 126 146 168 247 232 294 228 221 248 215 198 252 260 169 255 274 272 311 325 330 319 289 284
169 165 161 167 165 151 152 146 139 125 118 110 113 117 85 67 93 161 134 130 133 130 61 263 241 214 11 328 321 283 355 163 243 259 276 295 40 178 339 312 311 317 311 280
167 163 164 162 161 143 149 167 162 153 127 119 133 122 75 41 91 148 154 164 195 216 216 226 260 343 266 227 256 230 203 234 240 275 1 297 289 310 324 320 312 302 295 291
165 164 161 159 159 145 129 118 134 150 128 114 130 123 97 72 96 119 131 129 122 121 235 300 287 266 262 265 255 289 241 301 313 296 307 291 287 293 293 310 313 302 288 274
163 161 156 156 164 169 193 148 150 160 137 110 111 115 117 110 100 111 110 96 65 46 344 285 301 276 309 281 254 352 324 311 306 305 309 295 307 307 293 300 313 330 306 272
160 153 150 147 144 132 124 130 137 146 134 112 116 100 143 161 186 138 139 132 122 211 328 273 257 256 230 249 251 282 304 323 315 321 314 302 297 308 296 267 289 292 312 299
153 145 142 131 135 126 130 118 121 119 105 113 93 136 143 152 157 142 128 136 117 153 253 229 207 206 229 231 254 279 307 302 296 307 316 322 312 322 320 284 277 283 277 276
144 142 133 138 132 131 122 103 91 71 62 71 89 116 113 152 159 148 134 146 120 323 117 130 238 265 272 281 284 288 288 294 306 310 323 323 321 320 314 307 280 278 272 265
146 146 108 135 131 126 100 95 77 84 84 81 119 120 127 131 123 94 167 122 169 291 109 249 253 262 208 318 319 300 289 299 305 303 307 304 304 308 305 283 284 288 285 272
157 138 125 136 153 125 97 63 80 146 148 153 120 131 111 121 119 117 168 178 172 249 145 226 252 167 284 316 325 317 312 309 310 309 313 317 316 310 300 292 294 295 288 278
139 117 125 189 136 80 152 158 200 169 164 150 145 129 122 116 106 165 215 231 211 114 224 238 243 219 286 306 314 306 294 301 315 318 317 313 318 325 324 322 321 316 307 291
136 160 110 75 93 125 161 146 144 143 140 132 120 101 109 118 140 165 218 174 269 248 229 234 210 236 297 304 303 303 313 310 308 305 305 299 292 296 303 307 330 340 340 2
131 112 100 99 118 94 124 120 121 127 135 129 115 99 110 123 137 210 237 205 238 231 235 211 219 234 189 315 315 317 320 311 300 296 298 299 286 282 278 257 285 288 312 297
72 85 102 119 93 102 128 142 133 142 144 125 109 113 150 151 177 186 200 209 228 243 222 218 210 224 269 278 293 304 314 316 304 292 284 283 291 283 273 245 233 283 307 312
92 85 122 115 117 155 158 163 160 162 153 143 140 148 177 104 191 218 204 215 226 244 247 240 237 264 277 266 277 295 304 302 292 284 276 268 270 283 277 274 275 260 282 292
Height
1480 1481 1482 1480 1478 1478 1479 1481 1483 1484 1486 1489 1489 1482 1482 1480 1480 1481 1480 1480 1478 1477 1481 1481 1482 1482 1486 1487 1487 1486 1490 1491 1503 1500 1506 1506 1505 1498 1497 1500 1508 1511 1506 1488
1475 1477 1477 1476 1475 1475 1476 1479 1481 1483 1483 1481 1480 1480 1480 1479 1479 1479 1480 1478 1477 1477 1479 1480 1482 1483 1487 1487 1487 1486 1488 1492 1502 1510 1508 1507 1506 1501 1500 1502 1505 1512 1501 1487
1470 1472 1472 1472 1472 1471 1473 1477 1478 1482 1482 1482 1479 1478 1478 1477 1479 1479 1478 1478 1478 1477 1478 1481 1482 1484 1487 1488 1488 1489 1489 1492 1490 1486 1486 1488 1502 1498 1499 1501 1503 1493 1491 1487
1465 1467 1468 1468 1468 1468 1471 1472 1474 1474 1477 1479 1478 1480 1480 1477 1477 1479 1478 1478 1478 1477 1477 1478 1481 1484 1487 1489 1489 1489 1489 1496 1502 1495 1495 1496 1496 1494 1494 1501 1493 1494 1484 1482
1460 1463 1464 1464 1464 1465 1468 1468 1470 1474 1477 1478 1478 1479 1479 1478 1480 1480 1478 1478 1479 1479 1478 1483 1480 1482 1483 1482 1489 1489 1491 1496 1499 1496 1498 1498 1498 1492 1492 1491 1490 1489 1486 1482
1456 1458 1460 1460 1460 1462 1463 1464 1466 1468 1477 1478 1476 1477 1480 1480 1481 1483 1483 1483 1481 1482 1486 1486 1486 1485 1484 1483 1483 1487 1489 1495 1496 1493 1501 1499 1492 1483 1484 1484 1484 1485 1485 1473
1451 1454 1456 1456 1458 1459 1459 1460 1463 1466 1473 1476 1477 1480 1481 1480 1482 1482 1484 1483 1482 1487 1484 1485 1486 1487 1486 1486 1488 1488 1490 1497 1501 1495 1502 1494 1480 1484 1484 1484 1482 1482 1480 1476
1447 1451 1452 1453 1455 1456 1457 1458 1460 1463 1472 1477 1481 1481 1481 1482 1482 1484 1484 1485 1486 1485 1486 1483 1482 1483 1485 1487 1490 1490 1490 1488 1492 1490 1489 1481 1480 1485 1484 1482 1477 1477 1477 1476
1444 1447 1449 1451 1453 1454 1455 1456 1458 1460 1468 1479 1479 1480 1482 1481 1482 1483 1484 1486 1487 1486 1486 1485 1482 1480 1479 1484 1487 1491 1490 1489 1484 1492 1487 1481 1475 1479 1481 1481 1473 1475 1476 1474
1440 1444 1447 1449 1452 1453 1455 1455 1457 1459 1469 1478 1480 1480 1482 1484 1485 1484 1486 1487 1487 1486 1486 1488 1481 1480 1485 1479 1480 1484 1486 1487 1486 1485 1483 1475 1473 1478 1481 1479 1477 1473 1473 1473
1438 1441 1444 1448 1451 1453 1453 1454 1457 1459 1468 1478 1480 1481 1482 1484 1485 1483 1488 1489 1489 1488 1486 1486 1479 1475 1480 1483 1483 1482 1479 1480 1484 1482 1484 1482 1475 1479 1477 1472 1472 1473 1472 1471
1435 1438 1442 1446 1450 1452 1452 1453 1457 1461 1465 1478 1481 1482 1482 1483 1484 1486 1487 1489 1490 1491 1489 1489 1485 1478 1484 1480 1474 1485 1480 1477 1474 1475 1470 1471 1473 1472 1473 1472 1472 1471 1470 1468
1432 1437 1440 1445 1449 1451 1452 1453 1458 1462 1469 1480 1483 1484 1483 1484 1484 1485 1488 1491 1491 1490 1490 1492 1491 1486 1487 1479 1477 1479 1478 1480 1477 1476 1470 1471 1472 1471 1471 1470 1469 1467 1465 1464
1430 1435 1439 1444 1448 1450 1453 1454 1457 1459 1465 1476 1487 1485 1485 1485 1485 1485 1487 1489 1491 1493 1493 1492 1490 1487 1490 1486 1485 1485 1480 1481 1477 1474 1471 1469 1469 1470 1470 1468 1466 1465 1463 1461
1429 1434 1439 1443 1448 1450 1453 1456 1457 1459 1464 1472 1485 1487 1486 1485 1484 1486 1487 1489 1491 1492 1493 1492 1490 1490 1489 1486 1485 1478 1478 1474 1474 1468 1472 1470 1468 1467 1466 1465 1463 1462 1460 1458
1427 1433 1438 1443 1447 1451 1452 1457 1459 1459 1460 1466 1480 1486 1486 1486 1486 1487 1488 1489 1490 1492 1492 1492 1492 1491 1490 1485 1480 1477 1474 1476 1475 1473 1473 1472 1469 1466 1464 1463 1460 1458 1456 1455
1427 1433 1439 1443 1447 1450 1452 1454 1455 1458 1461 1465 1480 1485 1487 1487 1488 1489 1490 1490 1491 1492 1492 1493 1492 1491 1490 1489 1481 1475 1476 1475 1472 1472 1469 1466 1465 1464 1462 1460 1457 1454 1452 1451
1426 1433 1439 1445 1448 1450 1453 1453 1454 1458 1460 1464 1473 1483 1486 1487 1488 1488 1489 1490 1490 1492 1492 1492 1492 1490 1489 1482 1475 1475 1474 1472 1470 1469 1467 1464 1461 1458 1455 1457 1454 1453 1451 1451
1427 1434 1441 1446 1448 1450 1452 1454 1457 1458 1463 1464 1470 1473 1480 1485 1486 1486 1488 1488 1489 1492 1491 1490 1492 1485 1479 1472 1472 1470 1471 1470 1468 1466 1464 1460 1458 1455 1454 1453 1452 1451 1450 1448
1428 1435 1441 1445 1446 1450 1453 1458 1459 1460 1462 1465 1470 1475 1478 1483 1483 1485 1486 1487 1487 1486 1489 1491 1489 1478 1473 1470 1470 1469 1468 1466 1465 1462 1460 1458 1456 1454 1452 1449 1448 1448 1446 1445
1427 1433 1438 1443 1448 1452 1453 1456 1459 1462 1465 1467 1470 1472 1475 1481 1481 1482 1485 1484 1486 1483 1486 1488 1480 1473 1471 1470 1468 1467 1465 1462 1459 1458 1457 1456 1453 1451 1449 1447 1446 1445 1444 1443
1424 1427 1437 1445 1449 1450 1453 1459 1462 1461 1462 1467 1470 1473 1474 1478 1480 1483 1485 1483 1486 1482 1486 1484 1473 1467 1469 1468 1466 1465 1464 1462 1458 1456 1452 1451 1451 1449 1447 1446 1444 1443 1441 1440
1422 1427 1435 1439 1444 1447 1446 1457 1462 1461 1461 1464 1468 1472 1475 1477 1480 1483 1484 1482 1480 1483 1480 1469 1462 1465 1465 1464 1463 1462 1460 1459 1457 1454 1452 1449 1447 1446 1445 1444 1443 1441 1440 1439
1418 1422 1432 1432 1441 1444 1444 1446 1450 1454 1456 1461 1466 1470 1474 1476 1479 1481 1480 1480 1481 1476 1471 1463 1461 1461 1460 1460 1460 1459 1460 1457 1454 1452 1451 1449 1447 1445 1443 1442 1442 1442 1441 1440
1416 1417 1428 1434 1438 1443 1445 1447 1452 1454 1457 1461 1467 1472 1474 1475 1478 1480 1479 1478 1472 1467 1461 1457 1458 1459 1458 1458 1457 1457 1454 1454 1452 1449 1448 1448 1446 1444 1441 1441 1441 1441 1440 1439
1415 1421 1431 1435 1437 1446 1448 1451 1454 1456 1458 1462 1466 1470 1472 1471 1475 1477 1473 1474 1467 1457 1457 1455 1456 1456 1456 1455 1455 1453 1453 1451 1450 1448 1445 1444 1445 1443 1441 1439 1438 1439 1438 1437
1419 1425 1424 1426 1432 1438 1445 1449 1452 1455 1458 1461 1465 1469 1468 1470 1471 1471 1467 1462 1455 1453 1454 1453 1453 1453 1452 1452 1451 1449 1449 1447 1446 1445 1442 1440 1440 1441 1439 1437 1436 1435 1435 1434